AirNav   Air Wisconsin Up To $57,000 Bonus
 
 477 users online  

7V3 Big Foot Airfield
Walworth, Wisconsin, USA

GOING TO WALWORTH?


FAA INFORMATION EFFECTIVE 25 MARCH 2021

Location

FAA Identifier: 7V3
Lat/Long: 42-31-38.7170N 088-39-05.0170W
42-31.645283N 088-39.083617W
42.5274214,-88.6513936
(estimated)
Elevation: 946.4 ft. / 288.5 m (surveyed)
Variation: 00W (1985)
From city: 3 miles W of WALWORTH, WI
Time zone: UTC -5 (UTC -6 during Standard Time)
Zip code: 53184

Airport Operations

Airport use: Open to the public
Activation date: 10/1958
Control tower: no
ARTCC: CHICAGO CENTER
FSS: GREEN BAY FLIGHT SERVICE STATION
NOTAMs facility: GRB (NOTAM-D service available)
Attendance: UNATNDD
Wind indicator: yes
Segmented circle: no
Lights: ACTVT LIRL ON RY 18/36 - 123.75.

Airport Communications

CTAF: 122.9
WX AWOS-3 at JVL (18 nm W): PHONE 608-758-1723
WX AWOS-3 at BUU (18 nm NE): 125.275 (262-757-0907)

Nearby radio navigation aids

VOR radial/distance  VOR name  Freq  Var
JVLr092/20.1JANESVILLE VOR/DME114.3003E
RFDr052/30.3ROCKFORD VOR/DME110.8001E
OBKr303/36.0NORTHBROOK VOR/DME113.0002W
BAEr203/38.9BADGER VOR/DME116.4002E

 
NDB name  Hdg/Dist  Freq  Var  ID
ROCK RIVER176/38.937101WRYV .-. -.-- ...-

Airport Services

Parking: tiedowns
Bottled oxygen: NONE
Bulk oxygen: NONE

Runway Information

Runway 18/36

Dimensions: 2108 x 100 ft. / 643 x 30 m
Surface: turf, in fair condition
Runway edge lights: non-standard
NSTD LIRL; RY 18 THLD LGTS ARE 45 FT S OF RY MARKERS.
Runway edge markings: RY 18/36 THLD MKD WITH RED HALF BARRELS.
RUNWAY 18  RUNWAY 36
Latitude: 42-31.818775N42-31.471798N
Longitude: 088-39.085487W088-39.081740W
Elevation: 946.4 ft.945.8 ft.
Traffic pattern: leftleft
Runway heading: 180 magnetic, 180 true000 magnetic, 360 true
Markings: nonenone
Runway end identifier lights: nono
Touchdown point: yes, no lightsyes, no lights
Obstructions: 30 ft. tree, 420 ft. from runway, 120 ft. left of centerline, 14:1 slope to clear38 ft. tree, 1440 ft. from runway, 50 ft. right of centerline, 38:1 slope to clear

Airport Ownership and Management from official FAA records

Ownership: Privately-owned
Owner: BIG FOOT AIRFIELD, LLC
1020 TARRANT DRIVE
FONTANA, WI 53125
Phone (262) 745-3299
Manager: JIM BAIR
1020 TARRANT DRIVE
FONTANA, WI 53125
Phone (262) 745-3299
EMAIL ADDRESS: JAMES.C.BAIR@GMAIL.COM (ALL LOWER CASE)

Airport Operational Statistics

Aircraft based on the field: 13
Single engine airplanes: 12
Ultralights: 1
    
Aircraft operations: avg 77/week *
75% local general aviation
25% transient general aviation
* for 12-month period ending 30 May 2018

Additional Remarks

RWY NOT PLWD WINT MONTHS - OPEN TO SKI EQUIPPED ACFT ONLY.
FOR CD CTC CHICAGO ARTCC AT 630-906-8921.

Instrument Procedures

There are no published instrument procedures at 7V3.

Some nearby airports with instrument procedures:

C02 - Grand Geneva Resort Airport (13 nm NE)
44C - Beloit Airport (14 nm W)
10C - Galt Field Airport (14 nm SE)
C77 - Poplar Grove Airport (15 nm SW)
KJVL - Southern Wisconsin Regional Airport (18 nm W)
KBUU - Burlington Municipal Airport (18 nm NE)
 
Loc | Ops | Rwys | IFR | FBO | Links
Com | Nav | Svcs | Stats | Notes
Area around 7V3 (Big Foot Airfield)
 
Road maps at: MapQuest Bing Google
 
Aerial photo
WARNING: Photo may not be current or correct
Aerial photo of 7V3 (Big Foot Airfield)
Do you have a better or more recent aerial photo of Big Foot Airfield that you would like to share? If so, please send us your photo.

 
Sectional chart

 
Airport distance calculator
Flying to Big Foot Airfield? Find the distance to fly.

From to 7V3

Sunrise and sunset
Times for 18-Apr-2021
 Local
(UTC-5)
 Zulu
(UTC)
Morning civil twilight05:4010:40
Sunrise06:1011:10
Sunset19:3800:38
Evening civil twilight20:0801:08

Current date and time
Zulu (UTC)  18-Apr-2021 07:28:57
Local (UTC-5)  18-Apr-2021 02:28:57
 
METAR
KJVL 
17nm W 
180655Z AUTO 00000KT 10SM CLR 03/M01 A2995 RMK AO2
KBUU 
18nm NE 
180715Z AUTO 21003KT 10SM 00/M03 A2994 RMK AO2 T00001029 PWINO
K57C 
20nm NE 
180715Z AUTO 00000KT 10SM BKN100 00/M01 A2993 RMK AO2 T00011011
KRFD 
28nm SW 
180654Z 00000KT 10SM BKN110 05/M02 A2997 RMK AO2 SLP150 T00501017
KENW 
32nm E 
180653Z AUTO 25003KT 10SM CLR 02/M03 A2994 RMK AO2 SLP142 T00171033
TAF
KJVL 
17nm W 
180520Z 1806/1906 VRB03KT P6SM SCT250 FM181700 28010KT P6SM FEW120 FM190000 25006KT P6SM FEW180
NOTAMs
Click for the latest NOTAMs
NOTAMs are issued by the DoD/FAA and will open in a separate window not controlled by AirNav.

 

 
 

Would you like to see your business listed on this page?

 If your business provides an interesting product or service to pilots, flight crews, aircraft, or users of the Big Foot Airfield, you should consider listing it here.  To start the listing process, click on the button below
 
Add a business
 

Other Pages about Big Foot Airfield

Page from the Wisconsin airport directory (PDF)
 
Update a link
 
Copyright © AirNav, LLC. All rights reserved. Privacy Policy  Contact